Location: Asheville, NC
(35.6000°N, 82.5500°W)
Time: 22:49:46
(UTC-05:00)

Vanguard 1 Rocket - Pass Details

Date: 11 December 2017
Orbit: 656 x 4222 km, 34.3° (Epoch: 17 January)

Event Time Altitude Azimuth Distance (km) Brightness Sun altitude
Rises 01:51:50 0° 286° (WNW) 7,851 - -67.1°
Reaches altitude 10° 01:57:57 10° 277° (W) 7,137 - -66.0°
Maximum altitude 02:17:45 30° 227° (SW) 5,763 - -62.2°
Exits shadow 02:33:08 15° 181° (S) 6,211 11.4 -59.2°
Drops below altitude 10° 02:35:59 10° 174° (S) 6,453 11.6 -58.7°
Sets 02:41:19 0° 164° (SSE) 7,020 11.9 -57.6°
